| time (UTC) | temp C | wind direction | speed KPH | gust KPH | rain 1hr cm | rain 24hr cm | rain mn cm | humidity % | barometer mb |
| 20260509053102 | 10 | 170 | 0.0 | 4.8 | 0.00 | 0.00 | 0.00 | 62 | 1005.0 |
| 20260509051610 | 10 | 167 | 0.0 | 4.8 | 0.00 | 0.00 | 0.00 | 58 | 1005.0 |
| 20260509050015 | 10 | 165 | 0.0 | 0.0 | 0.00 | 0.00 | 0.00 | 54 | 1005.2 |
| 20260509044609 | 10 | 165 | 0.0 | 1.6 | 0.00 | 0.00 | 0.00 | 53 | 1005.0 |
| 20260509043119 | 10 | 171 | 0.0 | 4.8 | 0.00 | 0.00 | 0.00 | 54 | 1005.4 |
| 20260509041606 | 10 | 161 | 0.0 | 4.8 | 0.00 | 0.00 | 0.00 | 55 | 1005.5 |
| 20260509040118 | 9 | 166 | 0.0 | 0.0 | 0.00 | 0.00 | 0.00 | 55 | 1005.6 |
| 20260509034608 | 9 | 167 | 0.0 | 0.0 | 0.00 | 0.00 | 0.00 | 55 | 1005.7 |
| 20260509033116 | 8 | 173 | 0.0 | 0.0 | 0.00 | 0.00 | 0.00 | 57 | 1005.7 |
| 20260509031504 | 8 | 233 | 0.0 | 0.0 | 0.00 | 0.00 | 0.00 | 61 | 1005.9 |
| 20260509030113 | 9 | 233 | 0.0 | 0.0 | 0.00 | 0.00 | 0.00 | 62 | 1006.1 |
| 20260509024619 | 9 | 233 | 0.0 | 0.0 | 0.00 | 0.00 | 0.00 | 58 | 1006.1 |
| 20260509023109 | 9 | 233 | 0.0 | 0.0 | 0.00 | 0.00 | 0.00 | 56 | 1006.2 |
| 20260509021619 | 10 | 279 | 0.0 | 0.0 | 0.00 | 0.00 | 0.00 | 54 | 1006.3 |
| 20260509020108 | 11 | 279 | 0.0 | 0.0 | 0.00 | 0.00 | 0.00 | 49 | 1006.3 |
| 20260509014615 | 11 | 279 | 0.0 | 0.0 | 0.00 | 0.00 | 0.00 | 52 | 1006.3 |
| 20260509013111 | 12 | 279 | 0.0 | 0.0 | 0.00 | 0.00 | 0.00 | 41 | 1006.2 |
| 20260509011612 | 12 | 279 | 0.0 | 0.0 | 0.00 | 0.00 | 0.00 | 39 | 1006.1 |
| 20260509004611 | 14 | 279 | 0.0 | 0.0 | 0.00 | 0.00 | 0.00 | 42 | 1006.2 |
| 20260509003106 | 16 | 305 | 0.0 | 0.0 | 0.00 | 0.00 | 0.00 | 38 | 1006.1 |
| 20260509001612 | 17 | 305 | 0.0 | 0.0 | 0.00 | 0.00 | 0.00 | 26 | 1006.3 |
| 20260509000005 | 16 | 305 | 0.0 | 0.0 | 0.00 | 0.00 | 0.00 | 29 | 1006.3 |
| 20260508234607 | 17 | 307 | 0.0 | 3.2 | 0.00 | 0.00 | 0.00 | 29 | 1006.5 |
| 20260508233119 | 17 | 301 | 0.0 | 9.7 | 0.00 | 0.00 | 0.00 | 26 | 1006.6 |
| 20260508230118 | 17 | 336 | 1.6 | 11.3 | 0.00 | 0.00 | 0.00 | 26 | 1006.6 |
| 20260508224615 | 17 | 286 | 0.0 | 14.5 | 0.00 | 0.00 | 0.00 | 26 | 1006.5 |
| 20260508223114 | 17 | 306 | 0.0 | 9.7 | 0.00 | 0.00 | 0.00 | 26 | 1006.6 |
| 20260508221503 | 17 | 301 | 8.0 | 22.5 | 0.00 | 0.00 | 0.00 | 23 | 1006.6 |
| 20260508220110 | 18 | 348 | 3.2 | 19.3 | 0.00 | 0.00 | 0.00 | 29 | 1006.7 |
| 20260508214617 | 18 | 326 | 1.6 | 12.9 | 0.00 | 0.00 | 0.00 | 28 | 1006.7 |
| 20260508213109 | 18 | 339 | 1.6 | 19.3 | 0.00 | 0.00 | 0.00 | 28 | 1006.7 |
| 20260508211616 | 17 | 299 | 6.4 | 17.7 | 0.00 | 0.00 | 0.00 | 29 | 1006.8 |
| 20260508210107 | 17 | 290 | 6.4 | 24.1 | 0.00 | 0.00 | 0.00 | 31 | 1006.9 |
| 20260508204614 | 17 | 278 | 14.5 | 27.4 | 0.00 | 0.00 | 0.00 | 28 | 1007.1 |
| 20260508203110 | 17 | 300 | 9.7 | 27.4 | 0.00 | 0.00 | 0.00 | 30 | 1007.3 |
| 20260508201611 | 17 | 243 | 9.7 | 25.7 | 0.00 | 0.00 | 0.00 | 29 | 1007.3 |
| 20260508200124 | 17 | 243 | 17.7 | 29.0 | 0.00 | 0.00 | 0.00 | 26 | 1007.6 |
| 20260508194612 | 17 | 263 | 1.6 | 17.7 | 0.00 | 0.00 | 0.00 | 32 | 1007.8 |
| 20260508193119 | 17 | 260 | 11.3 | 29.0 | 0.00 | 0.00 | 0.00 | 30 | 1008.0 |
| 20260508191605 | 17 | 248 | 6.4 | 27.4 | 0.00 | 0.00 | 0.00 | 32 | 1008.1 |
| 20260508190117 | 17 | 243 | 17.7 | 30.6 | 0.00 | 0.00 | 0.00 | 27 | 1008.2 |
| 20260508184622 | 17 | 248 | 11.3 | 32.2 | 0.00 | 0.00 | 0.00 | 28 | 1008.3 |
| 20260508183148 | 17 | 243 | 17.7 | 30.6 | 0.00 | 0.00 | 0.00 | 30 | 1008.4 |
| 20260508181616 | 17 | 259 | 8.0 | 29.0 | 0.00 | 0.00 | 0.00 | 35 | 1008.5 |
| 20260508180108 | 17 | 281 | 6.4 | 27.4 | 0.00 | 0.00 | 0.00 | 30 | 1008.7 |
| 20260508174616 | 17 | 248 | 9.7 | 30.6 | 0.00 | 0.00 | 0.00 | 34 | 1009.0 |
| 20260508173113 | 17 | 248 | 8.0 | 24.1 | 0.00 | 0.00 | 0.00 | 40 | 1009.1 |
| 20260508171615 | 16 | 225 | 8.0 | 20.9 | 0.00 | 0.00 | 0.00 | 41 | 1009.2 |
| 20260508170105 | 16 | 109 | 0.0 | 11.3 | 0.00 | 0.00 | 0.00 | 36 | 1009.4 |
| 20260508164610 | 16 | 215 | 1.6 | 9.7 | 0.00 | 0.00 | 0.00 | 41 | 1009.8 |
| 20260508163005 | 15 | 336 | 0.0 | 1.6 | 0.00 | 0.00 | 0.00 | 46 | 1010.1 |
| 20260508161610 | 15 | 209 | 1.6 | 19.3 | 0.00 | 0.00 | 0.00 | 45 | 1010.2 |
| 20260508160121 | 15 | 301 | 0.0 | 0.0 | 0.00 | 0.00 | 0.00 | 47 | 1010.3 |
| 20260508154607 | 14 | 271 | 0.0 | 8.0 | 0.00 | 0.00 | 0.00 | 43 | 1010.4 |
| 20260508153118 | 15 | 124 | 0.0 | 9.7 | 0.00 | 0.00 | 0.00 | 49 | 1010.3 |
| 20260508151605 | 15 | 273 | 0.0 | 9.7 | 0.00 | 0.00 | 0.00 | 48 | 1010.5 |
| 20260508150127 | 14 | 165 | 0.0 | 6.4 | 0.00 | 0.00 | 0.00 | 49 | 1010.6 |
| 20260508144606 | 13 | 184 | 1.6 | 6.4 | 0.00 | 0.00 | 0.00 | 53 | 1010.7 |
| 20260508143117 | 12 | 234 | 0.0 | 0.0 | 0.00 | 0.00 | 0.00 | 55 | 1010.9 |
| 20260508141522 | 12 | 210 | 0.0 | 0.0 | 0.00 | 0.00 | 0.00 | 67 | 1010.9 |
| 20260508140121 | 11 | 243 | 0.0 | 0.0 | 0.00 | 0.00 | 0.00 | 75 | 1011.1 |
| 20260508134620 | 10 | 220 | 0.0 | 0.0 | 0.00 | 0.00 | 0.00 | 79 | 1011.2 |
| 20260508133131 | 10 | 181 | 0.0 | 0.0 | 0.00 | 0.00 | 0.00 | 84 | 1011.2 |
| 20260508131617 | 9 | 167 | 0.0 | 0.0 | 0.00 | 0.00 | 0.00 | 90 | 1011.5 |
| 20260508130109 | 8 | 155 | 0.0 | 0.0 | 0.00 | 0.00 | 0.00 | 95 | 1011.5 |
| 20260508124615 | 6 | 180 | 0.0 | 0.0 | 0.00 | 0.00 | 0.00 | 95 | 1011.7 |
| 20260508123107 | 5 | 232 | 0.0 | 0.0 | 0.00 | 0.00 | 0.00 | 95 | 1011.6 |
| 20260508121615 | 4 | 232 | 0.0 | 0.0 | 0.00 | 0.00 | 0.00 | 95 | 1011.5 |
| 20260508120106 | 3 | 232 | 0.0 | 0.0 | 0.00 | 0.00 | 0.00 | 95 | 1011.3 |
| 20260508114614 | 2 | 232 | 0.0 | 0.0 | 0.00 | 0.00 | 0.00 | 94 | 1011.1 |
| 20260508113127 | 1 | 232 | 0.0 | 0.0 | 0.00 | 0.00 | 0.00 | 94 | 1011.0 |
| 20260508111617 | 1 | 232 | 0.0 | 0.0 | 0.00 | 0.00 | 0.00 | 94 | 1011.0 |
| 20260508110004 | 1 | 232 | 0.0 | 0.0 | 0.00 | 0.00 | 0.00 | 93 | 1010.7 |
| 20260508104610 | 1 | 232 | 0.0 | 0.0 | 0.00 | 0.00 | 0.00 | 94 | 1010.7 |
| 20260508103004 | 1 | 232 | 0.0 | 0.0 | 0.00 | 0.00 | 0.00 | 93 | 1010.6 |
| 20260508101608 | 1 | 232 | 0.0 | 0.0 | 0.00 | 0.00 | 0.00 | 93 | 1010.5 |
| 20260508100114 | 1 | 232 | 0.0 | 0.0 | 0.00 | 0.00 | 0.00 | 92 | 1010.5 |
| 20260508094606 | 2 | 232 | 0.0 | 0.0 | 0.00 | 0.00 | 0.00 | 93 | 1010.6 |
| 20260508093113 | 1 | 232 | 0.0 | 0.0 | 0.00 | 0.00 | 0.00 | 93 | 1010.6 |
| 20260508091607 | 2 | 232 | 0.0 | 0.0 | 0.00 | 0.00 | 0.00 | 92 | 1010.6 |
| 20260508090110 | 2 | 232 | 0.0 | 0.0 | 0.00 | 0.00 | 0.00 | 93 | 1010.7 |
| 20260508084606 | 2 | 232 | 0.0 | 0.0 | 0.00 | 0.00 | 0.00 | 93 | 1010.8 |
| 20260508083114 | 2 | 232 | 0.0 | 0.0 | 0.00 | 0.00 | 0.00 | 92 | 1010.6 |
| 20260508081618 | 3 | 232 | 0.0 | 0.0 | 0.00 | 0.00 | 0.00 | 92 | 1010.8 |
| 20260508080118 | 3 | 232 | 0.0 | 0.0 | 0.00 | 0.00 | 0.00 | 92 | 1010.8 |
| 20260508074607 | 3 | 232 | 0.0 | 0.0 | 0.00 | 0.00 | 0.00 | 91 | 1010.8 |
| 20260508073112 | 3 | 232 | 0.0 | 0.0 | 0.00 | 0.00 | 0.00 | 90 | 1011.0 |
| 20260508071506 | 3 | 232 | 0.0 | 0.0 | 0.00 | 0.00 | 0.00 | 91 | 1011.0 |
| 20260508070108 | 3 | 232 | 0.0 | 0.0 | 0.00 | 0.00 | 0.00 | 90 | 1011.0 |
| 20260508064617 | 4 | 232 | 0.0 | 0.0 | 0.00 | 0.00 | 0.00 | 90 | 1011.2 |
| 20260508063108 | 4 | 232 | 0.0 | 0.0 | 0.00 | 0.00 | 0.00 | 90 | 1011.4 |
| 20260508061617 | 4 | 232 | 0.0 | 0.0 | 0.00 | 0.00 | 0.00 | 89 | 1011.7 |
| 20260508060112 | 4 | 232 | 0.0 | 0.0 | 0.00 | 0.00 | 0.00 | 89 | 1011.7 |
| 20260508054627 | 4 | 232 | 0.0 | 0.0 | 0.00 | 0.00 | 0.00 | 90 | 1011.6 |